Weather History for Lancaster, PA

Change the Weather History Date:

Monday, December 8, 2014

  Actual Average Record
Temperature  
Mean Temperature 26 °F -  
Max Temperature 30 °F 46 °F 70 °F (1980)
Min Temperature 23 °F 29 °F 8 °F (2002)
Degree Days  
Heating Degree Days 38    
Moisture  
Dew Point 17 °F    
Average Humidity 63    
Maximum Humidity 79    
Minimum Humidity 49    
Precipitation  
Precipitation 0.00 in - - ()
Sea Level Pressure  
Sea Level Pressure 30.52 in    
Wind  
Wind Speed 8 mph (ENE)    
Max Wind Speed 12 mph    
Max Gust Speed -    
Visibility 10 miles    
Events      
Averages and records for this station are not official NWS values.
T = Trace of Precipitation, MM = Missing Value Source: NWS Daily Summary

Daily Weather History Graph

Daily Weather History Graph

Search for Another Location

Airport:

Trip Planner

Search our weather history database for the weather conditions in past years. The results will help you decide how hot, cold, wet, or windy it might be!

Date:

Astronomy

Dec. 08, 2014 Rise Set
Actual Time 7:14 AM EST 4:39 PM EST
Civil Twilight 6:44 AM EST 5:09 PM EST
Nautical Twilight 6:10 AM EST 5:43 PM EST
Astronomical Twilight 5:37 AM EST 6:16 PM EST
Moon 7:00 PM EST (12/8) 8:44 AM EST (12/8)
Length of Visible Light 10h 25m
Length of Day
9h 24m
Waning Gibbous, 95% of the Moon is Illuminated
Dec 8
Waning Gibbous
Dec 14
Last Quarter
Dec 21
New
Dec 28
First Quarter
Jan 4
Full

Hourly Weather History & Observations

Time (EST) Temp. Windchill Dew Point Humidity Pressure Visibility Wind Dir Wind Speed Gust Speed Precip Events Conditions
12:53 AM 28.9 °F 21.9 °F 15.1 °F 56% 30.59 in 10.0 mi NE 6.9 mph - N/A   Clear
1:53 AM 28.0 °F 20.0 °F 16.0 °F 61% 30.58 in 10.0 mi ENE 8.1 mph - N/A   Clear
2:53 AM 26.1 °F 18.4 °F 16.0 °F 66% 30.57 in 10.0 mi NE 6.9 mph - N/A   Clear
3:53 AM 26.1 °F 20.5 °F 15.1 °F 63% 30.58 in 10.0 mi East 4.6 mph - N/A   Clear
4:53 AM 26.1 °F 17.6 °F 12.9 °F 58% 30.56 in 10.0 mi East 8.1 mph - N/A   Clear
5:53 AM 25.0 °F 19.3 °F 12.9 °F 60% 30.60 in 10.0 mi East 4.6 mph - N/A   Clear
6:53 AM 25.0 °F 17.1 °F 10.0 °F 53% 30.63 in 10.0 mi East 6.9 mph - N/A   Clear
7:53 AM 23.0 °F 14.7 °F 10.9 °F 60% 30.64 in 10.0 mi East 6.9 mph - N/A   Clear
8:15 AM 25.0 °F 17.1 °F 10.0 °F 53% 30.62 in 10.0 mi East 6.9 mph - N/A   Mostly Cloudy
8:53 AM 26.1 °F 17.6 °F 10.0 °F 51% 30.64 in 10.0 mi ENE 8.1 mph - N/A   Overcast
9:53 AM 27.0 °F 18.7 °F 10.0 °F 49% 30.65 in 10.0 mi ENE 8.1 mph - N/A   Overcast
10:53 AM 27.0 °F 16.7 °F 12.0 °F 53% 30.62 in 10.0 mi NE 11.5 mph - N/A   Overcast
11:53 AM 28.0 °F 18.1 °F 15.1 °F 58% 30.59 in 10.0 mi NE 11.5 mph - N/A   Overcast
12:53 PM 28.9 °F 19.8 °F 15.1 °F 56% 30.56 in 10.0 mi NE 10.4 mph - N/A   Overcast
1:53 PM 28.9 °F 21.1 °F 16.0 °F 58% 30.56 in 10.0 mi NE 8.1 mph - N/A   Overcast
2:53 PM 30.0 °F 22.4 °F 17.1 °F 59% 30.52 in 10.0 mi NE 8.1 mph - N/A   Overcast
3:53 PM 30.0 °F 22.4 °F 18.0 °F 61% 30.49 in 10.0 mi NE 8.1 mph - N/A   Overcast
4:53 PM 30.0 °F 21.7 °F 19.9 °F 66% 30.48 in 10.0 mi ENE 9.2 mph - N/A   Overcast
5:53 PM 30.0 °F 21.7 °F 21.0 °F 69% 30.46 in 10.0 mi ENE 9.2 mph - N/A   Overcast
6:53 PM 30.0 °F 20.5 °F 21.9 °F 72% 30.43 in 10.0 mi East 11.5 mph - N/A   Overcast
7:53 PM 30.0 °F 21.7 °F 23.0 °F 75% 30.41 in 10.0 mi East 9.2 mph - N/A   Overcast
8:53 PM 30.0 °F 21.7 °F 23.0 °F 75% 30.39 in 10.0 mi East 9.2 mph - N/A   Overcast
9:53 PM 30.0 °F 21.1 °F 24.1 °F 79% 30.34 in 10.0 mi ENE 10.4 mph - N/A   Overcast
10:04 PM 30.0 °F 20.5 °F 24.1 °F 79% 30.32 in 10.0 mi ENE 11.5 mph - N/A   Overcast
10:53 PM 30.9 °F 24.3 °F 25.0 °F 79% 30.33 in 10.0 mi ENE 6.9 mph - N/A   Overcast
11:53 PM 30.0 °F 24.1 °F 24.1 °F 79% 30.30 in 10.0 mi NNE 5.8 mph - N/A   Overcast